CW1234 Weather Reports


time (UTC)temp
C
wind
direction
speed
KPH
gust
KPH
rain 1hr
cm
rain 24hr
cm
rain mn
cm
humidity
%
barometer
mb
20190423015044 5 292 3.2 3.2 0.00 0.00 0.00 69 2739.7
20190423014013 5 258 3.2 3.2 0.00 0.00 0.00 68 2739.7
20190423013014 5 323 0.0 3.2 0.00 0.00 0.00 67 2739.7
20190423005043 6 266 0.0 6.4 0.00 0.00 0.00 65 2736.3
20190423003043 6 275 0.0 4.8 0.00 0.00 0.00 63 2736.3
20190423002043 6 278 0.0 3.2 0.00 0.00 0.00 64 2736.3
20190423001013 6 272 0.0 3.2 0.00 0.00 0.00 65 2736.3
20190423000013 6 287 0.0 0.0 0.00 0.00 0.00 66 2739.7
20190422235013 6 225 0.0 4.8 0.00 0.00 0.00 68 2739.7
20190422232043 5 204 4.8 4.8 0.00 0.00 0.00 74 2739.7
20190422223043 7 349 0.0 8.0 0.00 0.00 0.00 64 2736.3
20190422222043 7 304 3.2 6.4 0.00 0.00 0.00 62 2736.3
20190422221013 7 23 3.2 8.0 0.00 0.00 0.00 57 2736.3
20190422220043 7 346 3.2 4.8 0.00 0.00 0.00 57 2736.3
20190422215013 7 325 0.0 3.2 0.00 0.00 0.00 57 2736.3
20190422214013 7 333 3.2 3.2 0.00 0.00 0.00 58 2736.3
20190422211043 7 334 3.2 6.4 0.00 0.00 0.00 63 2739.7
20190422205012 7 34 4.8 8.0 0.00 0.00 0.00 60 2739.7
20190422204013 7 155 3.2 3.2 0.00 0.00 0.00 57 2739.7
20190422203012 7 190 0.0 3.2 0.00 0.00 0.00 58 2739.7
20190422202013 7 199 0.0 3.2 0.00 0.00 0.00 59 2739.7
20190422200012 7 261 3.2 3.2 0.00 0.00 0.00 60 2739.7
20190422195012 7 4 3.2 3.2 0.00 0.00 0.00 62 2739.7
20190422193012 7 328 3.2 3.2 0.00 0.00 0.00 56 2739.7
20190422192012 7 263 3.2 4.8 0.00 0.00 0.00 57 2739.7
20190422190042 7 285 3.2 3.2 0.00 0.00 0.00 55 2739.7
20190422185042 7 287 0.0 3.2 0.00 0.00 0.00 54 2739.7
20190422184042 7 205 3.2 4.8 0.00 0.00 0.00 53 2739.7
20190422181012 7 218 4.8 4.8 0.00 0.00 0.00 53 2739.7
20190422180012 7 199 4.8 4.8 0.00 0.00 0.00 53 2739.7
20190422174042 7 226 4.8 8.0 0.00 0.00 0.00 54 2739.7
20190422170012 7 309 4.8 8.0 0.00 0.00 0.00 52 2736.3
20190422161041 7 198 3.2 8.0 0.00 0.00 0.00 53 2736.3
20190422153040 7 290 4.8 8.0 0.00 0.00 0.00 54 2732.9
20190422152040 7 162 6.4 8.0 0.00 0.00 0.00 54 2732.9
20190422134039 5 211 4.8 8.0 0.00 0.00 0.00 74 2732.9
20190422133039 5 250 8.0 11.3 0.00 0.00 0.00 75 2732.9
20190422125038 4 275 6.4 6.4 0.00 0.00 0.00 77 2732.9
20190422114038 5 313 0.0 6.4 0.00 0.00 0.00 77 2729.6
20190422112038 6 219 3.2 6.4 0.00 0.00 0.00 75 2729.6
20190422102038 6 208 4.8 6.4 0.00 0.00 0.00 75 2729.6
20190422101038 6 318 3.2 4.8 0.00 0.00 0.00 75 2729.6
20190422095038 6 149 6.4 8.0 0.00 0.00 0.00 73 2726.2
20190422093038 6 214 6.4 6.4 0.00 0.00 0.00 73 2726.2
20190422092038 6 218 6.4 6.4 0.00 0.00 0.00 72 2726.2
20190422091038 6 223 4.8 8.0 0.00 0.00 0.00 72 2726.2
20190422090038 6 238 3.2 11.3 0.00 0.00 0.00 72 2726.2
20190422073037 6 204 12.9 12.9 0.00 0.00 0.00 67 2722.8
20190422070037 6 168 3.2 8.0 0.00 0.00 0.00 67 2722.8
20190422063037 6 185 6.4 14.5 0.00 0.00 0.00 69 2722.8
20190422062037 6 216 11.3 11.3 0.00 0.00 0.00 69 2722.8
20190422061037 6 235 6.4 6.4 0.00 0.00 0.00 69 2726.2
20190422055037 6 235 11.3 11.3 0.00 0.00 0.00 69 2726.2
20190422051036 7 210 8.0 8.0 0.00 0.00 0.00 67 2726.2
20190422045036 7 277 3.2 6.4 0.00 0.00 0.00 67 2726.2
20190422044036 7 207 6.4 8.0 0.00 0.00 0.00 67 2726.2
20190422043036 7 168 3.2 6.4 0.00 0.00 0.00 68 2722.8
20190422042036 7 179 6.4 11.3 0.00 0.00 0.00 67 2722.8
20190422031036 7 260 4.8 6.4 0.00 0.00 0.00 67 2719.4
20190422030036 7 271 4.8 11.3 0.00 0.00 0.00 62 2719.4
20190422023036 8 232 6.4 11.3 0.00 0.00 0.00 57 2719.4
20190422022035 8 256 11.3 14.5 0.00 0.00 0.00 58 2716.0
20190422021035 8 334 6.4 14.5 0.00 0.00 0.00 57 2716.0
20190422020035 8 276 11.3 11.3 0.00 0.00 0.00 57 2716.0